Location: Cheching
(60.0667°N, 164.2167°W)
Time: 11:38:58
(UTC+00:00)

FENGYUN 1C DEB - Pass Details

Date: 03 October 2021
Orbit: 727 x 819 km, 99.4° (Epoch: 17 October)

Event Time Altitude Azimuth Distance (km) Brightness Sun altitude
Exits shadow 09:43:04 - 58° (ENE) 2,496 ? -32.8°
Reaches altitude 10° 09:44:20 10° 45° (NE) 2,281 ? -32.8°
Maximum altitude 09:45:58 12° 26° (NNE) 2,182 ? -32.9°
Drops below altitude 10° 09:47:37 10° 7° (N) 2,301 ? -33.0°
Sets 09:51:35 0° 336° (NNW) 3,255 ? -33.1°
